Tracking 31011 objects as of 12-Jul-2025
HD Live streaming from Space Station
objects crossing your sky now

SL-16 DEB

Track SL-16 DEB now!
10-day predictions


NORAD ID: 22613
Int'l Code: 1993-016X
Perigee: 837.3 km
Apogee: 1,124.6 km
Inclination: 71.0 °
Period: 104.6 minutes
Semi major axis: 7351 km
RCS: 0.0769 m2 (small)
Launch date: March 26, 1993
Source: Commonwealth of Independent States (former USSR) (CIS)
Launch site: TYURATAM MISSILE AND SPACE COMPLEX (TTMTR)

Note: This is SATELLITE DEBRIS
Your satellite tracking list
Your tracking list is empty




NASA's NSSDC Master Catalog

Two Line Element Set (TLE):
1 22613U 93016X   25193.42455156  .00000313  00000-0  31369-3 0  9997
2 22613  70.9984 213.1842 0195446 290.6412 134.3273 13.77207823618184
Source of the keplerian elements: AFSPC